User: anonymous   Login
Location: Tierra del Sol
(32.6128°N, 116.3319°W)
Time: 20:07:31
(UTC-08:00)
Language:

Envisat - Orbit

View from above orbital plane
View from above orbital plane
View from above satellite
View from above satellite

Ground track
Ground track

The orbit data is extracted from the following two-line orbital elements,

1 27386U 02009A   17350.77151927 -.00000015  00000-0  85482-5 0  9991
2 27386  98.2093  28.2036 0001506  82.6396 277.4957 14.37910800827311
Epoch (UTC): 16 December 2017 18:30:59
Eccentricity: 0.0001506
inclination: 98.2093°
perigee height: 764 km
apogee height: 766 km
right ascension of ascending node: 28.2036°
argument of perigee: 82.6396°
revolutions per day: 14.37910800
mean anomaly at epoch: 277.4957°
orbit number at epoch: 82731

The dashed part of the orbit path shows where the satellite is in the earth's shadow,  

DLR